Homestead AFB, FL

11:32 PM EDT on June 27, 2017 (GMT -0400)
Dade County-Homestead Regional

Weather History for KHST - June, 2014

Change the Weather History Date:

Tuesday, June 3, 2014

  Actual Average Record
Temperature  
Mean Temperature 79 °F -  
Max Temperature 82 °F 87 °F 94 °F (1945)
Min Temperature 75 °F 70 °F 61 °F (1951)
Cooling Degree Days 14    
Growing Degree Days 29 (Base 50)    
Moisture  
Dew Point 66 °F    
Average Humidity 67    
Maximum Humidity 75    
Minimum Humidity 62    
Precipitation  
Precipitation 0.00 in - - ()
Sea Level Pressure  
Sea Level Pressure 30.02 in    
Wind  
Wind Speed 9 mph (ENE)    
Max Wind Speed 14 mph    
Max Gust Speed 20 mph    
Visibility 10 miles    
Events Rain    
Averages and records for this station are not official NWS values.
T = Trace of Precipitation, MM = Missing Value Source: NWS Daily Summary

Daily Weather History Graph

Daily Weather History Graph

Search for Another Location

Airport or City:

Trip Planner

Search our weather history database for the weather conditions in past years. The results will help you decide how hot, cold, wet, or windy it might be!

Date:

Astronomy

Jun. 03, 2014 Rise Set
Actual Time 6:30 AM EDT 8:09 PM EDT
Civil Twilight 6:04 AM EDT 8:34 PM EDT
Nautical Twilight 5:34 AM EDT 9:05 PM EDT
Astronomical Twilight 5:01 AM EDT 9:37 PM EDT
Moon 11:31 AM EDT (6/3) No Moon Set
Length of Visible Light 14h 30m
Length of Day
13h 38m
Waxing Crescent, 30% of the Moon is Illuminated
Jun 3
Waxing Crescent
Jun 5
First Quarter
Jun 13
Full
Jun 19
Last Quarter
Jun 27
New

Hourly Weather History & Observations

Time (EDT) Temp. Heat Index Dew Point Humidity Pressure Visibility Wind Dir Wind Speed Gust Speed Precip Events Conditions
12:58 AM 79.0 °F - 65.8 °F 64% 30.05 in 10.0 mi East 10.4 mph - N/A   Scattered Clouds
1:58 AM 78.1 °F - 66.6 °F 68% 30.03 in 10.0 mi ENE 12.7 mph - N/A   Mostly Cloudy
2:58 AM 78.3 °F - 64.9 °F 63% 30.01 in 10.0 mi East 10.4 mph - N/A   Scattered Clouds
3:58 AM 77.9 °F - 64.6 °F 63% 30.00 in 10.0 mi ENE 9.2 mph - N/A   Partly Cloudy
4:58 AM 77.9 °F - 65.5 °F 65% 30.00 in 10.0 mi ENE 9.2 mph - N/A   Partly Cloudy
5:58 AM 77.7 °F - 65.3 °F 65% 30.01 in 10.0 mi East 10.4 mph - N/A   Clear
6:58 AM 77.7 °F - 65.7 °F 66% 30.02 in 10.0 mi ENE 8.1 mph - N/A   Partly Cloudy
7:58 AM 78.1 °F - 66.6 °F 68% 30.03 in 10.0 mi ENE 8.1 mph - N/A   Mostly Cloudy
8:58 AM 78.6 °F - 65.5 °F 64% 30.05 in 10.0 mi ENE 9.2 mph - N/A   Scattered Clouds
9:58 AM 80.2 °F 82.5 °F 66.4 °F 63% 30.06 in 10.0 mi East 12.7 mph - N/A   Scattered Clouds
10:58 AM 80.2 °F 82.5 °F 66.6 °F 63% 30.06 in 10.0 mi East 10.4 mph - N/A   Clear
11:58 AM 82.0 °F 84.9 °F 67.6 °F 62% 30.05 in 10.0 mi ENE 11.5 mph - N/A   Clear
12:58 PM 80.4 °F 83.0 °F 67.5 °F 65% 30.03 in 10.0 mi ENE 11.5 mph - N/A   Clear
1:58 PM 80.6 °F 83.1 °F 67.3 °F 64% 30.02 in 10.0 mi ENE 13.8 mph 19.6 mph N/A   Partly Cloudy
2:58 PM 80.1 °F 82.3 °F 66.7 °F 64% 30.02 in 10.0 mi ENE 10.4 mph - N/A   Scattered Clouds
3:58 PM 79.3 °F - 66.7 °F 65% 30.01 in 10.0 mi ENE 6.9 mph - N/A   Mostly Cloudy
4:58 PM 79.2 °F - 67.5 °F 67% 30.00 in 10.0 mi ENE 6.9 mph - N/A   Scattered Clouds
5:51 PM 77.0 °F - 68.0 °F 74% 29.98 in 9.0 mi NE 8.1 mph - N/A Rain Light Rain
5:58 PM 77.0 °F - 68.5 °F 75% 30.00 in 9.0 mi NNE 5.8 mph - 0.00 in Rain Light Rain
6:00 PM 77.0 °F - 68.0 °F 74% 29.98 in 10.0 mi NE 5.8 mph - N/A   Mostly Cloudy
6:58 PM 77.4 °F - 67.1 °F 71% 29.99 in 10.0 mi ENE 4.6 mph - 0.00 in   Scattered Clouds
7:58 PM 77.5 °F - 66.4 °F 68% 29.99 in 10.0 mi ENE 3.5 mph - N/A   Clear
8:58 PM 76.8 °F - 65.8 °F 69% 30.00 in 10.0 mi ENE 2.3 mph - N/A   Scattered Clouds
9:58 PM 76.5 °F - 66.6 °F 71% 30.00 in 10.0 mi NNE 2.3 mph - N/A   Mostly Cloudy
10:58 PM 76.1 °F - 66.4 °F 72% 30.01 in 10.0 mi North 3.5 mph - 0.00 in   Light Drizzle
11:58 PM 75.0 °F - 65.3 °F 72% 30.01 in 10.0 mi North 2.3 mph - 0.00 in Rain Light Rain